Regional Weather Roundup
Issued by NWS Charleston, SC

Current Version | Previous Version | Text Only | Print | Product List | Glossary Off
Versions: 1 2 3 4 5 6 7 8 9 10 11 12 13 14 15 16 17 18 19 20 21 22 23 24 25 26 27 28 29 30 31 32 33 34 35 36 37 38 39 40 41 42 43 44 45 46 47 48 49 50

000
ASUS42 KCHS 201410
RWRCHS

REGIONAL WEATHER ROUNDUP
NATIONAL WEATHER SERVICE CHARLESTON SC
1000 AM EDT SAT SEP 20 2014

NOTE: "FAIR" INDICATES FEW OR NO CLOUDS BELOW 12,000 FEET WITH NO
SIGNIFICANT WEATHER AND/OR OBSTRUCTIONS TO VISIBILITY.

NOT ALL STATIONS ARE QUALITY CONTROLLED BY THE NATIONAL
WEATHER SERVICE. USE DATA WITH CAUTION...ESPECIALLY
DEWPOINT OBSERVATIONS.

SCZ027-030-031-034>040-042>050-201500-
...SOUTH CAROLINA...

CITY           SKY/WX    TMP DP  RH WIND       PRES   REMARKS
N CHARLESTON   CLOUDY    70  65  84 N12       30.06S
WATERFRONT PRK   N/A     72 N/A N/A N21G26      N/A
FORT JOHNSON   NOT AVBL
MOUNT PLEASANT FAIR      70  66  88 N7        30.06R FOG
JOHNS ISLAND   MOSUNNY   70  70 100 N12       30.05S
PINOPOLIS        N/A     72  64  78 NE17      30.00S
MONCKS CORNER    N/A     70  66  88 NE7       30.08R FOG
SUMMERVILLE    FAIR      70  68  94 N9        30.09R
BEAUFORT MCAS  CLOUDY    70  67  90 W12       30.06R
BEAUFORT ARPT  CLOUDY    70  70 100 N16       30.05R
HILTON HEAD IS DRIZZLE   72  70  94 N13G20    30.05R
GEORGETOWN     NOT AVBL
WALTERBORO     CLOUDY    70  70 100 N7        30.08S
ORANGEBURG     MOSUNNY   69  61  75 NE9       30.12R
BARNWELL       FAIR      72  64  78 NE12      30.11S
AIKEN          FAIR      72  68  88 NE13G18   30.16S
MANNING        FAIR      68  66  94 N9        30.11S
KINGSTREE      NOT AVBL
COLUMBIA       MOSUNNY   73  60  63 NE7       30.13S
SUMTER         SUNNY     68  58  70 NE16      30.12S
FLORENCE       PTSUNNY   67  60  78 NE12      30.14S
MYRTLE BEACH   PTSUNNY   70  61  73 N14       30.09R
N MYRTLE BEACH CLOUDY    69  62  78 NE13      30.09S

$$

GAZ063-065-086>088-099>101-113>116-118-119-134-136>141-150-201500-
...GEORGIA...

CITY           SKY/WX    TMP DP  RH WIND       PRES   REMARKS
SAVANNAH ARPT  CLOUDY    73  68  84 NE10      30.04R
HUNTER AAF     CLOUDY    72  70  94 NE8       30.01S
FORT STEWART   CLOUDY    73  68  84 N12       30.02R
STATESBORO     NOT AVBL
SYLVANIA       PTSUNNY   73  69  89 NE8       30.09S
CLAXTON        CLOUDY    72  72 100 NE12      30.05S
THOMSON        MOSUNNY   73  69  86 N8        30.18S
AUGUSTA-BUSH   SUNNY     73  64  73 N9        30.11F
AUGUSTA-DANIEL SUNNY     74  63  68 NE12      30.13S
SWAINSBORO     CLOUDY    72  72 100 NE7       30.10R
VIDALIA        CLOUDY    72  70  94 NE9       30.07S
ALMA           CLOUDY    73  68  84 NE10G18   30.03R
WAYCROSS       CLOUDY    76  73  90 NE8       30.02R
JESUP          CLOUDY    75  72  88 NE8       30.02S
BRUNSWICK      CLOUDY    73  72  94 NW3       30.00S
SAINT SIMONS   LGT RAIN  75  71  87 NE12      29.98S

$$

SCZ027-028-034-036>038-045-046-048>050-GAZ119-141-201500-
...LAKE AND SUPPLEMENTAL COASTAL OBSERVATIONS...

STATION/POSITION TIME  TEMP    WIND        PRES    WAVE   SWELL
                       AIR SEA DIR/SP/G            HT/PER HT/PER/DIR
                 (UTC) (F)     (DEG/KT/KT) (MB)    (FT/S) (FT/S/D)
UPR LAKE MARION  NOT AVBL
WINYAH BAY       1300   69      20/  8     1018.0S
LAKE MURRAY      1300   69      20/  3/  8 1020.3S
ACE BASIN NERRS  1300   68      20/  3     1017.0S
FORT PULASKI     1400   74      10/ 13/ 16 1016.8R
SAPELO ISLAND    1300   74      60/  6     1016.0S

$$

ANZ835-935-AMZ111-154-330-350-352-354-374-450-454-472-201500-
...C-MAN AND BUOY OBSERVATIONS...

STATION/POSITION TIME  TEMP    WIND        PRES    WAVE   SWELL
                       AIR SEA DIR/SP/G            HT/PER HT/PER/DIR
                 (UTC) (F)     (DEG/KT/KT) (MB)    (FT/S) (FT/S/D)
FOLLY BEACH CMAN 1300   72      20/ 18/ 20 1017.5F
BUOY 41004       1400   80 82   50/ 19/ 23 1015.0F   8/ 7   3/ 8
BUOY 41008       1400   78 83   70/ 19/ 21 1014.7F   6/ 7
5E ST. MARYS GA  1400      84                N/A     5/ 8
FRYING PAN BUOY  NOT AVBL
BUOY 41025       1400   79      90/ 17/ 21 1018.7R   8/ 9   5/ 70/ 9
CAPE LOOKOUT NC  1300   72      20/ 11/ 14 1019.3R
BUOY 41002       1320   74 82  100/ 17/ 27 1016.4F   7/ 7   2/ 80/11
BUOY 41010       1400   78 84  150/ 14/ 16 1012.3S   6/ 8   5/ 60/ 8
BUOY 41012       NOT AVBL
ST AUGUSTINE FL  1400   76      20/ 17/ 19 1014.8R
CAPERS NEARSHORE NOT AVBL
FRIPP NEARSHORE  NOT AVBL


$$



USA.gov is the U.S. government's official web portal to all federal, state and local government web resources and services.